Time,TemperatureF,DewpointF,PressureIn,WindDirection,WindDirectionDegrees,WindSpeedMPH,WindSpeedGustMPH,Humidity,HourlyPrecipIn,Conditions,Clouds,dailyrainin,SoftwareType,DateUTC
2013-06-24 00:01:00,70.3,67.2,29.78,SE,143,0.0,0.0,90,0.00,,,0.00,WeatherCatV1.15B25,2013-06-24 05:01:00,
2013-06-24 00:06:00,70.2,67.1,29.78,SE,146,0.0,0.0,90,0.00,,,0.00,WeatherCatV1.15B25,2013-06-24 05:06:00,
2013-06-24 00:11:00,70.1,67.0,29.78,SSE,160,0.0,0.0,90,0.00,,,0.00,WeatherCatV1.15B25,2013-06-24 05:11:00,
2013-06-24 00:16:00,69.9,67.1,29.78,SSE,167,0.0,0.0,91,0.00,,,0.00,WeatherCatV1.15B25,2013-06-24 05:16:00,
2013-06-24 00:21:00,69.8,67.0,29.78,SSE,168,0.0,1.0,91,0.00,,,0.00,WeatherCatV1.15B25,2013-06-24 05:21:00,
2013-06-24 00:26:00,69.7,66.9,29.78,SSE,165,1.0,2.0,91,0.00,,,0.00,WeatherCatV1.15B25,2013-06-24 05:26:00,
2013-06-24 00:31:00,69.7,66.9,29.78,SE,145,1.0,1.0,91,0.00,,,0.00,WeatherCatV1.15B25,2013-06-24 05:31:00,
2013-06-24 00:36:00,69.7,66.9,29.78,SSE,160,0.0,1.0,91,0.00,,,0.00,WeatherCatV1.15B25,2013-06-24 05:36:00,
2013-06-24 00:41:00,69.7,67.3,29.78,SSE,150,0.0,1.0,92,0.00,,,0.00,WeatherCatV1.15B25,2013-06-24 05:41:00,
2013-06-24 00:46:00,69.6,67.2,29.78,SSE,155,1.0,1.0,92,0.00,,,0.00,WeatherCatV1.15B25,2013-06-24 05:46:00,
2013-06-24 00:51:00,69.6,67.2,29.78,SSE,164,0.0,0.0,92,0.00,,,0.00,WeatherCatV1.15B25,2013-06-24 05:51:00,
2013-06-24 00:56:00,69.5,67.1,29.77,SSE,168,2.0,2.0,92,0.00,,,0.00,WeatherCatV1.15B25,2013-06-24 05:56:00,
2013-06-24 01:01:00,69.3,66.9,29.77,SSW,192,0.0,0.0,92,0.00,,,0.00,WeatherCatV1.15B25,2013-06-24 06:01:00,
2013-06-24 01:06:00,69.3,66.9,29.77,South,188,2.0,2.0,92,0.00,,,0.00,WeatherCatV1.15B25,2013-06-24 06:06:00,
2013-06-24 01:11:00,69.2,66.8,29.78,SSW,203,1.0,1.0,92,0.00,,,0.00,WeatherCatV1.15B25,2013-06-24 06:11:00,
2013-06-24 01:16:00,69.2,66.8,29.77,SSW,203,1.0,1.0,92,0.00,,,0.00,WeatherCatV1.15B25,2013-06-24 06:16:00,
2013-06-24 01:21:00,69.0,66.6,29.78,SSW,204,1.0,1.0,92,0.00,,,0.00,WeatherCatV1.15B25,2013-06-24 06:21:00,
2013-06-24 01:26:00,68.6,66.2,29.78,SSW,204,0.0,1.0,92,0.00,,,0.00,WeatherCatV1.15B25,2013-06-24 06:26:00,
2013-06-24 01:31:00,68.3,66.2,29.78,South,172,0.0,1.0,93,0.00,,,0.00,WeatherCatV1.15B25,2013-06-24 06:31:00,
2013-06-24 01:36:00,68.2,66.4,29.78,South,174,0.0,0.0,94,0.00,,,0.00,WeatherCatV1.15B25,2013-06-24 06:36:00,
2013-06-24 01:41:00,68.0,66.2,29.78,South,174,0.0,0.0,94,0.00,,,0.00,WeatherCatV1.15B25,2013-06-24 06:41:00,
2013-06-24 01:46:00,68.0,66.2,29.78,South,170,1.0,1.0,94,0.00,,,0.00,WeatherCatV1.15B25,2013-06-24 06:46:00,
2013-06-24 01:51:00,67.9,66.1,29.78,SSE,159,0.0,1.0,94,0.00,,,0.00,WeatherCatV1.15B25,2013-06-24 06:51:00,
2013-06-24 01:56:00,67.9,66.4,29.78,SSE,157,0.0,0.0,95,0.00,,,0.00,WeatherCatV1.15B25,2013-06-24 06:56:00,
2013-06-24 02:01:00,68.1,66.6,29.77,SSE,150,0.0,0.0,95,0.00,,,0.00,WeatherCatV1.15B25,2013-06-24 07:01:00,
2013-06-24 02:06:00,68.1,66.6,29.77,SSE,148,0.0,1.0,95,0.00,,,0.00,WeatherCatV1.15B25,2013-06-24 07:06:00,
2013-06-24 02:11:00,68.2,66.7,29.77,SSE,153,0.0,1.0,95,0.00,,,0.00,WeatherCatV1.15B25,2013-06-24 07:11:00,
2013-06-24 02:16:00,68.0,66.2,29.77,SSE,164,0.0,0.0,94,0.00,,,0.00,WeatherCatV1.15B25,2013-06-24 07:16:00,
2013-06-24 02:21:00,67.9,66.4,29.77,SSE,164,0.0,0.0,95,0.00,,,0.00,WeatherCatV1.15B25,2013-06-24 07:21:00,
2013-06-24 02:26:00,67.8,66.3,29.77,SSE,164,0.0,0.0,95,0.00,,,0.00,WeatherCatV1.15B25,2013-06-24 07:26:00,
2013-06-24 02:31:00,67.8,66.3,29.76,SSE,164,0.0,2.0,95,0.00,,,0.00,WeatherCatV1.15B25,2013-06-24 07:31:00,
2013-06-24 02:36:00,67.7,66.2,29.76,SSE,165,0.0,1.0,95,0.00,,,0.00,WeatherCatV1.15B25,2013-06-24 07:36:00,
2013-06-24 02:41:00,67.3,65.5,29.76,SSE,165,0.0,1.0,94,0.00,,,0.00,WeatherCatV1.15B25,2013-06-24 07:41:00,
2013-06-24 02:46:00,67.0,65.5,29.76,SSE,165,0.0,0.0,95,0.00,,,0.00,WeatherCatV1.15B25,2013-06-24 07:46:00,
2013-06-24 02:51:00,66.9,65.4,29.76,SSE,165,0.0,0.0,95,0.00,,,0.00,WeatherCatV1.15B25,2013-06-24 07:51:00,
2013-06-24 02:56:00,66.8,65.3,29.76,SSE,165,0.0,0.0,95,0.00,,,0.00,WeatherCatV1.15B25,2013-06-24 07:56:00,
2013-06-24 03:01:00,66.7,65.2,29.76,SSE,160,1.0,1.0,95,0.00,,,0.00,WeatherCatV1.15B25,2013-06-24 08:01:00,
2013-06-24 03:06:00,66.5,65.0,29.76,SSE,155,1.0,2.0,95,0.00,,,0.00,WeatherCatV1.15B25,2013-06-24 08:06:00,
2013-06-24 03:11:00,66.4,64.9,29.76,SSE,155,0.0,0.0,95,0.00,,,0.00,WeatherCatV1.15B25,2013-06-24 08:11:00,
2013-06-24 03:16:00,66.5,65.3,29.76,SSW,203,0.0,0.0,96,0.00,,,0.00,WeatherCatV1.15B25,2013-06-24 08:16:00,
2013-06-24 03:21:00,66.7,65.5,29.76,SSW,212,0.0,0.0,96,0.00,,,0.00,WeatherCatV1.15B25,2013-06-24 08:21:00,
2013-06-24 03:26:00,66.8,65.6,29.76,SSW,211,0.0,0.0,96,0.00,,,0.00,WeatherCatV1.15B25,2013-06-24 08:26:00,
2013-06-24 03:31:00,66.9,65.7,29.76,SSW,211,0.0,0.0,96,0.00,,,0.00,WeatherCatV1.15B25,2013-06-24 08:31:00,
2013-06-24 03:36:00,66.8,65.6,29.76,SE,127,1.0,1.0,96,0.00,,,0.00,WeatherCatV1.15B25,2013-06-24 08:36:00,
2013-06-24 03:41:00,66.4,65.2,29.76,SSE,148,1.0,2.0,96,0.00,,,0.00,WeatherCatV1.15B25,2013-06-24 08:41:00,
2013-06-24 03:46:00,66.3,65.1,29.77,SE,146,2.0,2.0,96,0.00,,,0.00,WeatherCatV1.15B25,2013-06-24 08:46:00,
2013-06-24 03:51:00,66.4,65.2,29.77,SSE,147,0.0,0.0,96,0.00,,,0.00,WeatherCatV1.15B25,2013-06-24 08:51:00,
2013-06-24 03:56:00,66.3,65.1,29.77,SSE,158,2.0,2.0,96,0.00,,,0.00,WeatherCatV1.15B25,2013-06-24 08:56:00,
2013-06-24 04:01:00,66.2,65.0,29.77,SSE,164,2.0,2.0,96,0.00,,,0.00,WeatherCatV1.15B25,2013-06-24 09:01:00,
2013-06-24 04:06:00,66.1,64.9,29.77,SSE,164,0.0,0.0,96,0.00,,,0.00,WeatherCatV1.15B25,2013-06-24 09:06:00,
2013-06-24 04:11:00,65.9,64.7,29.76,SSE,165,0.0,1.0,96,0.00,,,0.00,WeatherCatV1.15B25,2013-06-24 09:11:00,
2013-06-24 04:16:00,65.9,64.7,29.76,SSW,211,1.0,1.0,96,0.00,,,0.00,WeatherCatV1.15B25,2013-06-24 09:16:00,
2013-06-24 04:20:00,65.9,65.0,29.76,SSW,211,1.0,1.0,97,0.00,,,0.00,WeatherCatV1.15B25,2013-06-24 09:20:00,
2013-06-24 04:25:00,65.8,64.9,29.76,SSW,196,0.0,1.0,97,0.00,,,0.00,WeatherCatV1.15B25,2013-06-24 09:25:00,
2013-06-24 04:30:00,65.8,64.9,29.77,SSW,196,1.0,1.0,97,0.00,,,0.00,WeatherCatV1.15B25,2013-06-24 09:30:00,
2013-06-24 04:35:00,66.0,65.1,29.77,SSE,150,3.0,4.0,97,0.00,,,0.00,WeatherCatV1.15B25,2013-06-24 09:35:00,
2013-06-24 04:40:00,66.4,65.5,29.77,SSE,150,2.0,5.0,97,0.00,,,0.00,WeatherCatV1.15B25,2013-06-24 09:40:00,
2013-06-24 04:45:00,66.6,65.7,29.77,SSE,147,1.0,2.0,97,0.00,,,0.00,WeatherCatV1.15B25,2013-06-24 09:45:00,
2013-06-24 04:50:00,66.6,65.7,29.76,SE,143,1.0,1.0,97,0.00,,,0.00,WeatherCatV1.15B25,2013-06-24 09:50:00,
2013-06-24 04:52:00,66.6,65.7,29.76,SE,143,1.0,1.0,97,0.00,,,0.00,WeatherCatV1.15B25,2013-06-24 09:52:00,
2013-06-24 04:57:00,66.5,65.6,29.77,SSE,153,2.0,2.0,97,0.00,,,0.00,WeatherCatV1.15B25,2013-06-24 09:57:00,
2013-06-24 05:02:00,66.6,65.7,29.76,SSE,153,0.0,0.0,97,0.00,,,0.00,WeatherCatV1.15B25,2013-06-24 10:02:00,
2013-06-24 05:07:00,66.7,65.8,29.76,SSE,153,1.0,1.0,97,0.00,,,0.00,WeatherCatV1.15B25,2013-06-24 10:07:00,
2013-06-24 05:12:00,66.6,65.7,29.76,SE,137,2.0,2.0,97,0.00,,,0.00,WeatherCatV1.15B25,2013-06-24 10:12:00,
2013-06-24 05:17:00,66.8,65.9,29.76,SE,145,2.0,3.0,97,0.00,,,0.00,WeatherCatV1.15B25,2013-06-24 10:17:00,
2013-06-24 05:22:00,67.0,66.1,29.76,SE,143,0.0,1.0,97,0.00,,,0.00,WeatherCatV1.15B25,2013-06-24 10:22:00,
2013-06-24 05:27:00,66.9,65.7,29.76,SE,143,0.0,1.0,96,0.00,,,0.00,WeatherCatV1.15B25,2013-06-24 10:27:00,
2013-06-24 05:32:00,66.7,65.5,29.76,SE,142,0.0,1.0,96,0.00,,,0.00,WeatherCatV1.15B25,2013-06-24 10:32:00,
2013-06-24 05:37:00,66.3,65.1,29.76,SE,142,0.0,1.0,96,0.00,,,0.00,WeatherCatV1.15B25,2013-06-24 10:37:00,
2013-06-24 05:42:00,66.0,64.8,29.76,SE,142,0.0,0.0,96,0.00,,,0.00,WeatherCatV1.15B25,2013-06-24 10:42:00,
2013-06-24 05:47:00,65.8,64.6,29.76,SE,142,0.0,0.0,96,0.00,,,0.00,WeatherCatV1.15B25,2013-06-24 10:47:00,
2013-06-24 05:52:00,65.9,64.7,29.76,SE,142,0.0,0.0,96,0.00,,,0.00,WeatherCatV1.15B25,2013-06-24 10:52:00,
2013-06-24 05:57:00,66.0,65.1,29.77,SE,142,0.0,0.0,97,0.00,,,0.00,WeatherCatV1.15B25,2013-06-24 10:57:00,
2013-06-24 06:02:00,65.9,65.0,29.78,SE,142,0.0,0.0,97,0.00,,,0.00,WeatherCatV1.15B25,2013-06-24 11:02:00,
2013-06-24 06:07:00,65.6,64.4,29.77,SE,142,1.0,1.0,96,0.00,,,0.00,WeatherCatV1.15B25,2013-06-24 11:07:00,
2013-06-24 06:12:00,65.5,64.3,29.78,SSE,162,2.0,2.0,96,0.00,,,0.00,WeatherCatV1.15B25,2013-06-24 11:12:00,
2013-06-24 06:17:00,65.9,65.0,29.78,SSE,151,1.0,1.0,97,0.00,,,0.00,WeatherCatV1.15B25,2013-06-24 11:17:00,
2013-06-24 06:22:00,66.1,65.2,29.78,SSE,151,1.0,1.0,97,0.00,,,0.00,WeatherCatV1.15B25,2013-06-24 11:22:00,
2013-06-24 06:27:00,66.2,65.3,29.78,SSE,158,0.0,0.0,97,0.00,,,0.00,WeatherCatV1.15B25,2013-06-24 11:27:00,
2013-06-24 06:32:00,66.4,65.5,29.78,SSE,158,1.0,1.0,97,0.00,,,0.00,WeatherCatV1.15B25,2013-06-24 11:32:00,
2013-06-24 06:37:00,66.7,65.8,29.79,SE,143,3.0,5.0,97,0.00,,,0.00,WeatherCatV1.15B25,2013-06-24 11:37:00,
2013-06-24 06:42:00,67.1,66.2,29.79,SE,143,3.0,5.0,97,0.00,,,0.00,WeatherCatV1.15B25,2013-06-24 11:42:00,
2013-06-24 06:47:00,67.4,66.5,29.78,SSE,154,4.0,4.0,97,0.00,,,0.00,WeatherCatV1.15B25,2013-06-24 11:47:00,
2013-06-24 06:52:00,67.6,66.7,29.78,SE,133,4.0,5.0,97,0.00,,,0.00,WeatherCatV1.15B25,2013-06-24 11:52:00,
2013-06-24 06:57:00,67.9,67.0,29.77,SE,136,4.0,5.0,97,0.00,,,0.00,WeatherCatV1.15B25,2013-06-24 11:57:00,
2013-06-24 07:02:00,68.2,67.3,29.77,ESE,118,3.0,4.0,97,0.00,,,0.00,WeatherCatV1.15B25,2013-06-24 12:02:00,
2013-06-24 07:07:00,68.4,67.2,29.76,ESE,111,3.0,4.0,96,0.00,,,0.00,WeatherCatV1.15B25,2013-06-24 12:07:00,
2013-06-24 07:13:00,68.5,67.3,29.76,ESE,120,4.0,4.0,96,0.00,,,0.00,WeatherCatV1.15B25,2013-06-24 12:13:00,
2013-06-24 07:18:00,68.9,67.7,29.76,ESE,117,2.0,3.0,96,0.00,,,0.00,WeatherCatV1.15B25,2013-06-24 12:18:00,
2013-06-24 07:23:00,69.3,68.1,29.76,ESE,108,2.0,3.0,96,0.00,,,0.00,WeatherCatV1.15B25,2013-06-24 12:23:00,
2013-06-24 07:28:00,69.6,68.4,29.75,ESE,104,0.0,2.0,96,0.00,,,0.00,WeatherCatV1.15B25,2013-06-24 12:28:00,
2013-06-24 07:33:00,69.9,68.4,29.75,ENE,60,2.0,2.0,95,0.00,,,0.00,WeatherCatV1.15B25,2013-06-24 12:33:00,
2013-06-24 07:38:00,70.3,68.8,29.75,East,83,1.0,2.0,95,0.00,,,0.00,WeatherCatV1.15B25,2013-06-24 12:38:00,
2013-06-24 07:43:00,70.6,68.8,29.75,ESE,105,3.0,4.0,94,0.00,,,0.00,WeatherCatV1.15B25,2013-06-24 12:43:00,
2013-06-24 07:48:00,70.7,68.9,29.74,NE,48,1.0,1.0,94,0.00,,,0.00,WeatherCatV1.15B25,2013-06-24 12:48:00,
2013-06-24 07:53:00,71.2,69.1,29.74,ESE,105,3.0,3.0,93,0.00,,,0.00,WeatherCatV1.15B25,2013-06-24 12:53:00,
2013-06-24 07:58:00,71.5,69.4,29.74,ESE,107,3.0,4.0,93,0.00,,,0.00,WeatherCatV1.15B25,2013-06-24 12:58:00,
2013-06-24 08:03:00,72.0,69.2,29.74,ESE,113,0.0,0.0,91,0.00,,,0.00,WeatherCatV1.15B25,2013-06-24 13:03:00,
2013-06-24 08:08:00,72.4,69.9,29.74,ESE,122,0.0,4.0,92,0.00,,,0.00,WeatherCatV1.15B25,2013-06-24 13:08:00,
2013-06-24 08:13:00,72.6,70.1,29.74,SE,146,0.0,0.0,92,0.00,,,0.00,WeatherCatV1.15B25,2013-06-24 13:13:00,
2013-06-24 08:18:00,72.7,70.6,29.74,SE,124,0.0,0.0,93,0.00,,,0.00,WeatherCatV1.15B25,2013-06-24 13:18:00,
2013-06-24 08:23:00,72.9,70.8,29.75,SE,134,0.0,2.0,93,0.00,,,0.00,WeatherCatV1.15B25,2013-06-24 13:23:00,
2013-06-24 08:28:00,73.2,71.0,29.75,SSE,151,0.0,2.0,93,0.00,,,0.00,WeatherCatV1.15B25,2013-06-24 13:28:00,
2013-06-24 08:33:00,73.5,71.3,29.75,SE,129,0.0,2.0,93,0.00,,,0.00,WeatherCatV1.15B25,2013-06-24 13:33:00,
2013-06-24 08:38:00,73.7,71.2,29.76,SSE,163,1.0,4.0,92,0.00,,,0.00,WeatherCatV1.15B25,2013-06-24 13:38:00,
2013-06-24 08:43:00,73.7,70.9,29.76,SE,141,0.0,1.0,91,0.00,,,0.00,WeatherCatV1.15B25,2013-06-24 13:43:00,
2013-06-24 08:48:00,73.9,71.4,29.77,SSE,149,0.0,0.0,92,0.00,,,0.00,WeatherCatV1.15B25,2013-06-24 13:48:00,
2013-06-24 08:53:00,73.8,71.0,29.77,South,174,0.0,0.0,91,0.00,,,0.00,WeatherCatV1.15B25,2013-06-24 13:53:00,
2013-06-24 08:58:00,73.9,71.4,29.78,SSE,158,0.0,0.0,92,0.00,,,0.00,WeatherCatV1.15B25,2013-06-24 13:58:00,
2013-06-24 09:03:00,73.9,71.1,29.78,SSE,150,0.0,0.0,91,0.00,,,0.00,WeatherCatV1.15B25,2013-06-24 14:03:00,
2013-06-24 09:08:00,74.0,71.5,29.77,South,183,0.0,0.0,92,0.00,,,0.00,WeatherCatV1.15B25,2013-06-24 14:08:00,
2013-06-24 09:13:00,74.2,71.4,29.77,SE,129,0.0,2.0,91,0.00,,,0.00,WeatherCatV1.15B25,2013-06-24 14:13:00,
2013-06-24 09:18:00,74.2,71.4,29.77,SSE,163,0.0,1.0,91,0.00,,,0.00,WeatherCatV1.15B25,2013-06-24 14:18:00,
2013-06-24 09:23:00,74.4,71.6,29.77,SE,137,0.0,0.0,91,0.00,,,0.00,WeatherCatV1.15B25,2013-06-24 14:23:00,
2013-06-24 09:28:00,74.4,71.6,29.78,SSE,162,0.0,0.0,91,0.00,,,0.00,WeatherCatV1.15B25,2013-06-24 14:28:00,
2013-06-24 09:33:00,74.4,71.6,29.78,SE,134,0.0,0.0,91,0.00,,,0.00,WeatherCatV1.15B25,2013-06-24 14:33:00,
2013-06-24 09:38:00,74.3,71.5,29.78,SSE,162,0.0,0.0,91,0.00,,,0.00,WeatherCatV1.15B25,2013-06-24 14:38:00,
2013-06-24 09:43:00,74.3,71.5,29.77,South,169,0.0,0.0,91,0.00,,,0.00,WeatherCatV1.15B25,2013-06-24 14:43:00,
2013-06-24 09:48:00,74.3,71.5,29.77,SSW,192,0.0,0.0,91,0.00,,,0.00,WeatherCatV1.15B25,2013-06-24 14:48:00,
2013-06-24 09:53:00,74.4,71.6,29.77,SSE,150,0.0,0.0,91,0.00,,,0.00,WeatherCatV1.15B25,2013-06-24 14:53:00,
2013-06-24 09:58:00,74.6,71.8,29.77,SSW,203,0.0,0.0,91,0.00,,,0.00,WeatherCatV1.15B25,2013-06-24 14:58:00,
2013-06-24 10:03:00,74.6,71.8,29.77,South,178,0.0,0.0,91,0.00,,,0.00,WeatherCatV1.15B25,2013-06-24 15:03:00,
2013-06-24 10:08:00,74.6,71.8,29.76,SSE,155,0.0,0.0,91,0.00,,,0.00,WeatherCatV1.15B25,2013-06-24 15:08:00,
2013-06-24 10:13:00,74.7,71.9,29.77,SE,142,0.0,0.0,91,0.00,,,0.00,WeatherCatV1.15B25,2013-06-24 15:13:00,
2013-06-24 10:18:00,74.7,71.9,29.77,South,176,0.0,0.0,91,0.00,,,0.00,WeatherCatV1.15B25,2013-06-24 15:18:00,
2013-06-24 10:23:00,74.6,71.8,29.77,SSE,159,0.0,0.0,91,0.00,,,0.00,WeatherCatV1.15B25,2013-06-24 15:23:00,
2013-06-24 10:28:00,74.5,71.7,29.77,South,181,0.0,0.0,91,0.00,,,0.00,WeatherCatV1.15B25,2013-06-24 15:28:00,
2013-06-24 10:33:00,74.4,71.6,29.78,SSE,159,0.0,0.0,91,0.00,,,0.00,WeatherCatV1.15B25,2013-06-24 15:33:00,
2013-06-24 10:38:00,74.3,71.5,29.77,SSW,197,0.0,0.0,91,0.00,,,0.00,WeatherCatV1.15B25,2013-06-24 15:38:00,
2013-06-24 10:43:00,74.2,71.4,29.77,South,181,0.0,0.0,91,0.00,,,0.00,WeatherCatV1.15B25,2013-06-24 15:43:00,
2013-06-24 10:48:00,74.1,71.3,29.77,South,185,0.0,0.0,91,0.00,,,0.00,WeatherCatV1.15B25,2013-06-24 15:48:00,
2013-06-24 10:53:00,74.1,71.3,29.77,SSW,198,0.0,0.0,91,0.00,,,0.00,WeatherCatV1.15B25,2013-06-24 15:53:00,
2013-06-24 10:58:00,74.1,71.3,29.78,South,184,0.0,0.0,91,0.00,,,0.00,WeatherCatV1.15B25,2013-06-24 15:58:00,
2013-06-24 11:03:00,74.1,71.6,29.78,SSW,204,0.0,0.0,92,0.00,,,0.00,WeatherCatV1.15B25,2013-06-24 16:03:00,
2013-06-24 11:08:00,74.0,71.5,29.77,South,179,0.0,0.0,92,0.00,,,0.00,WeatherCatV1.15B25,2013-06-24 16:08:00,
2013-06-24 11:13:00,73.8,71.3,29.77,SSW,192,0.0,0.0,92,0.27,,,0.03,WeatherCatV1.15B25,2013-06-24 16:13:00,
2013-06-24 11:18:00,73.6,71.4,29.76,South,185,0.0,0.0,93,0.12,,,0.04,WeatherCatV1.15B25,2013-06-24 16:18:00,
2013-06-24 11:23:00,73.5,71.3,29.76,ESE,120,0.0,0.0,93,0.11,,,0.04,WeatherCatV1.15B25,2013-06-24 16:23:00,
2013-06-24 11:28:00,73.4,70.9,29.75,SSE,167,0.0,0.0,92,0.06,,,0.04,WeatherCatV1.15B25,2013-06-24 16:28:00,
2013-06-24 11:33:00,73.3,70.8,29.75,SSE,148,0.0,0.0,92,0.04,,,0.04,WeatherCatV1.15B25,2013-06-24 16:33:00,
2013-06-24 11:38:00,73.4,71.2,29.75,SE,141,0.0,0.0,93,0.00,,,0.04,WeatherCatV1.15B25,2013-06-24 16:38:00,
2013-06-24 11:43:00,73.4,71.2,29.74,ESE,106,0.0,0.0,93,0.00,,,0.04,WeatherCatV1.15B25,2013-06-24 16:43:00,
2013-06-24 11:48:00,73.5,71.3,29.74,SSE,155,0.0,0.0,93,0.00,,,0.04,WeatherCatV1.15B25,2013-06-24 16:48:00,
2013-06-24 11:53:00,73.7,71.5,29.75,South,180,0.0,0.0,93,0.00,,,0.04,WeatherCatV1.15B25,2013-06-24 16:53:00,
2013-06-24 11:58:00,73.9,71.4,29.74,SSW,192,0.0,0.0,92,0.00,,,0.04,WeatherCatV1.15B25,2013-06-24 16:58:00,
2013-06-24 12:03:00,74.3,69.5,29.73,SSW,210,0.0,0.0,85,0.00,,,0.04,WeatherCatV1.15B25,2013-06-24 17:03:00,
2013-06-24 12:08:00,74.8,70.7,29.73,SE,129,0.0,0.0,87,0.00,,,0.04,WeatherCatV1.15B25,2013-06-24 17:08:00,
2013-06-24 12:13:00,74.6,71.5,29.73,SE,124,0.0,0.0,90,0.00,,,0.04,WeatherCatV1.15B25,2013-06-24 17:13:00,
2013-06-24 12:18:00,74.6,71.1,29.72,SE,130,0.0,0.0,89,0.00,,,0.04,WeatherCatV1.15B25,2013-06-24 17:18:00,
2013-06-24 12:23:00,74.5,70.7,29.71,ESE,114,0.0,0.0,88,0.00,,,0.04,WeatherCatV1.15B25,2013-06-24 17:23:00,
2013-06-24 12:28:00,74.5,70.4,29.69,East,101,0.0,0.0,87,0.00,,,0.04,WeatherCatV1.15B25,2013-06-24 17:28:00,
2013-06-24 12:33:00,74.7,69.9,29.68,ESE,107,0.0,0.0,85,0.00,,,0.04,WeatherCatV1.15B25,2013-06-24 17:33:00,
2013-06-24 12:38:00,74.9,70.4,29.68,ESE,113,0.0,0.0,86,0.00,,,0.04,WeatherCatV1.15B25,2013-06-24 17:38:00,
2013-06-24 12:43:00,75.1,70.3,29.69,East,96,0.0,0.0,85,0.00,,,0.04,WeatherCatV1.15B25,2013-06-24 17:43:00,
2013-06-24 12:48:00,75.1,70.3,29.70,SSE,147,0.0,1.0,85,0.00,,,0.04,WeatherCatV1.15B25,2013-06-24 17:48:00,
2013-06-24 12:53:00,75.0,70.5,29.69,ESE,122,0.0,0.0,86,0.00,,,0.04,WeatherCatV1.15B25,2013-06-24 17:53:00,
2013-06-24 12:58:00,75.0,70.5,29.70,ESE,110,0.0,0.0,86,0.00,,,0.04,WeatherCatV1.15B25,2013-06-24 17:58:00,
2013-06-24 13:03:00,75.1,70.3,29.70,SE,126,0.0,0.0,85,0.00,,,0.04,WeatherCatV1.15B25,2013-06-24 18:03:00,
2013-06-24 13:08:00,75.2,70.4,29.72,SE,124,0.0,0.0,85,0.00,,,0.04,WeatherCatV1.15B25,2013-06-24 18:08:00,
2013-06-24 13:13:00,75.2,70.4,29.72,ESE,123,0.0,0.0,85,0.00,,,0.04,WeatherCatV1.15B25,2013-06-24 18:13:00,
2013-06-24 13:18:00,75.1,70.6,29.72,ESE,112,0.0,0.0,86,0.00,,,0.04,WeatherCatV1.15B25,2013-06-24 18:18:00,
2013-06-24 13:23:00,75.1,71.0,29.72,SE,143,0.0,0.0,87,0.00,,,0.04,WeatherCatV1.15B25,2013-06-24 18:23:00,
2013-06-24 13:28:00,75.2,71.4,29.74,SSE,168,0.0,1.0,88,0.00,,,0.04,WeatherCatV1.15B25,2013-06-24 18:28:00,
2013-06-24 13:33:00,75.1,71.3,29.73,ESE,115,0.0,0.0,88,0.00,,,0.04,WeatherCatV1.15B25,2013-06-24 18:33:00,
2013-06-24 13:38:00,74.7,70.6,29.72,SSE,156,0.0,0.0,87,0.00,,,0.04,WeatherCatV1.15B25,2013-06-24 18:38:00,
2013-06-24 13:43:00,74.3,70.2,29.73,SSE,155,0.0,1.0,87,0.00,,,0.04,WeatherCatV1.15B25,2013-06-24 18:43:00,
2013-06-24 13:48:00,74.0,70.2,29.73,SSE,150,0.0,8.0,88,0.00,,,0.04,WeatherCatV1.15B25,2013-06-24 18:48:00,
2013-06-24 13:53:00,73.5,69.7,29.73,SSE,155,0.0,0.0,88,0.00,,,0.04,WeatherCatV1.15B25,2013-06-24 18:53:00,
2013-06-24 13:58:00,72.9,68.8,29.73,SE,145,0.0,0.0,87,0.00,,,0.04,WeatherCatV1.15B25,2013-06-24 18:58:00,
2013-06-24 14:03:00,72.5,68.4,29.73,SE,146,0.0,0.0,87,0.00,,,0.04,WeatherCatV1.15B25,2013-06-24 19:03:00,
2013-06-24 14:08:00,72.3,68.5,29.72,SE,136,0.0,0.0,88,0.00,,,0.04,WeatherCatV1.15B25,2013-06-24 19:08:00,
2013-06-24 14:13:00,71.9,68.1,29.71,SE,124,0.0,0.0,88,0.00,,,0.04,WeatherCatV1.15B25,2013-06-24 19:13:00,
2013-06-24 14:18:00,71.6,67.8,29.71,SE,141,0.0,0.0,88,0.00,,,0.04,WeatherCatV1.15B25,2013-06-24 19:18:00,
2013-06-24 14:23:00,71.5,67.8,29.70,ESE,116,0.0,0.0,88,0.00,,,0.04,WeatherCatV1.15B25,2013-06-24 19:23:00,
2013-06-24 14:28:00,71.4,67.3,29.70,SE,134,0.0,0.0,87,0.00,,,0.04,WeatherCatV1.15B25,2013-06-24 19:28:00,
2013-06-24 14:33:00,71.2,67.5,29.70,SE,124,0.0,0.0,88,0.00,,,0.04,WeatherCatV1.15B25,2013-06-24 19:33:00,
2013-06-24 14:38:00,71.0,67.3,29.69,ESE,110,0.0,0.0,88,0.00,,,0.04,WeatherCatV1.15B25,2013-06-24 19:38:00,
2013-06-24 14:43:00,70.8,67.4,29.69,ESE,118,0.0,0.0,89,0.00,,,0.04,WeatherCatV1.15B25,2013-06-24 19:43:00,
2013-06-24 14:48:00,70.7,67.3,29.70,SSE,162,0.0,0.0,89,0.00,,,0.05,WeatherCatV1.15B25,2013-06-24 19:48:00,
2013-06-24 14:53:00,70.6,67.5,29.70,ESE,121,0.0,0.0,90,0.00,,,0.05,WeatherCatV1.15B25,2013-06-24 19:53:00,
2013-06-24 14:58:00,70.4,67.0,29.70,ESE,113,0.0,0.0,89,0.00,,,0.05,WeatherCatV1.15B25,2013-06-24 19:58:00,
2013-06-24 15:03:00,70.3,66.9,29.69,East,99,0.0,0.0,89,0.00,,,0.05,WeatherCatV1.15B25,2013-06-24 20:03:00,
2013-06-24 15:08:00,70.2,66.8,29.68,East,100,0.0,0.0,89,0.00,,,0.05,WeatherCatV1.15B25,2013-06-24 20:08:00,
2013-06-24 15:13:00,70.2,66.8,29.69,ESE,120,1.0,1.0,89,0.00,,,0.05,WeatherCatV1.15B25,2013-06-24 20:13:00,
2013-06-24 15:18:00,70.5,67.4,29.70,South,175,0.0,0.0,90,0.00,,,0.05,WeatherCatV1.15B25,2013-06-24 20:18:00,
2013-06-24 15:23:00,70.6,67.2,29.70,SSE,149,0.0,0.0,89,0.00,,,0.05,WeatherCatV1.15B25,2013-06-24 20:23:00,
2013-06-24 15:28:00,70.8,67.4,29.70,SW,233,0.0,0.0,89,0.00,,,0.05,WeatherCatV1.15B25,2013-06-24 20:28:00,
2013-06-24 15:33:00,71.0,67.6,29.70,SW,217,0.0,0.0,89,0.00,,,0.05,WeatherCatV1.15B25,2013-06-24 20:33:00,
2013-06-24 15:38:00,71.1,67.0,29.70,SW,233,0.0,0.0,87,0.00,,,0.05,WeatherCatV1.15B25,2013-06-24 20:38:00,
2013-06-24 15:43:00,71.4,67.7,29.69,SSW,213,0.0,0.0,88,0.00,,,0.05,WeatherCatV1.15B25,2013-06-24 20:43:00,
2013-06-24 15:48:00,71.6,67.5,29.71,SW,222,0.0,0.0,87,0.00,,,0.05,WeatherCatV1.15B25,2013-06-24 20:48:00,
2013-06-24 15:53:00,71.8,67.4,29.71,SW,226,0.0,0.0,86,0.00,,,0.05,WeatherCatV1.15B25,2013-06-24 20:53:00,
2013-06-24 15:58:00,72.0,68.2,29.71,WSW,247,0.0,0.0,88,0.00,,,0.05,WeatherCatV1.15B25,2013-06-24 20:58:00,
2013-06-24 16:03:00,72.3,68.2,29.72,SW,232,0.0,0.0,87,0.00,,,0.05,WeatherCatV1.15B25,2013-06-24 21:03:00,
2013-06-24 16:08:00,72.4,68.3,29.72,SW,221,0.0,0.0,87,0.00,,,0.05,WeatherCatV1.15B25,2013-06-24 21:08:00,
2013-06-24 16:13:00,72.3,67.9,29.71,South,186,0.0,0.0,86,0.00,,,0.05,WeatherCatV1.15B25,2013-06-24 21:13:00,
2013-06-24 16:18:00,72.1,67.3,29.71,SSW,205,0.0,0.0,85,0.00,,,0.05,WeatherCatV1.15B25,2013-06-24 21:18:00,
2013-06-24 16:23:00,72.2,68.1,29.71,SW,216,0.0,0.0,87,0.00,,,0.05,WeatherCatV1.15B25,2013-06-24 21:23:00,
2013-06-24 16:28:00,72.4,68.0,29.71,WSW,245,0.0,0.0,86,0.00,,,0.05,WeatherCatV1.15B25,2013-06-24 21:28:00,
2013-06-24 16:33:00,72.7,68.3,29.71,SW,215,0.0,0.0,86,0.00,,,0.05,WeatherCatV1.15B25,2013-06-24 21:33:00,
2013-06-24 16:38:00,73.0,67.9,29.71,SW,220,0.0,0.0,84,0.00,,,0.05,WeatherCatV1.15B25,2013-06-24 21:38:00,
2013-06-24 16:43:00,73.3,67.5,29.71,SSE,160,0.0,0.0,82,0.00,,,0.05,WeatherCatV1.15B25,2013-06-24 21:43:00,
2013-06-24 16:48:00,73.5,67.7,29.70,SSE,167,0.0,0.0,82,0.00,,,0.05,WeatherCatV1.15B25,2013-06-24 21:48:00,
2013-06-24 16:53:00,73.8,67.9,29.70,South,174,0.0,2.0,82,0.00,,,0.05,WeatherCatV1.15B25,2013-06-24 21:53:00,
2013-06-24 16:58:00,74.2,68.0,29.70,SSE,168,0.0,0.0,81,0.00,,,0.05,WeatherCatV1.15B25,2013-06-24 21:58:00,
2013-06-24 17:03:00,74.9,68.3,29.70,South,177,0.0,0.0,80,0.00,,,0.05,WeatherCatV1.15B25,2013-06-24 22:03:00,
2013-06-24 17:08:00,75.2,67.5,29.70,SW,228,6.0,7.0,77,0.00,,,0.05,WeatherCatV1.15B25,2013-06-24 22:08:00,
2013-06-24 17:13:00,75.4,68.4,29.71,SSW,198,6.0,9.0,79,0.00,,,0.05,WeatherCatV1.15B25,2013-06-24 22:13:00,
2013-06-24 17:18:00,75.9,67.8,29.70,SSW,210,0.0,9.0,76,0.00,,,0.05,WeatherCatV1.15B25,2013-06-24 22:18:00,
2013-06-24 17:23:00,75.9,68.2,29.70,SSW,205,8.0,11.0,77,0.00,,,0.05,WeatherCatV1.15B25,2013-06-24 22:23:00,
2013-06-24 17:28:00,75.9,68.5,29.70,SW,219,5.0,8.0,78,0.00,,,0.05,WeatherCatV1.15B25,2013-06-24 22:28:00,
2013-06-24 17:33:00,75.8,68.4,29.70,SW,229,7.0,8.0,78,0.00,,,0.05,WeatherCatV1.15B25,2013-06-24 22:33:00,
2013-06-24 17:38:00,75.8,68.4,29.70,SSW,211,6.0,8.0,78,0.00,,,0.05,WeatherCatV1.15B25,2013-06-24 22:38:00,
2013-06-24 17:43:00,75.8,68.8,29.70,South,179,7.0,11.0,79,0.00,,,0.05,WeatherCatV1.15B25,2013-06-24 22:43:00,
2013-06-24 17:48:00,75.7,68.0,29.70,SSW,201,6.0,12.0,77,0.00,,,0.05,WeatherCatV1.15B25,2013-06-24 22:48:00,
2013-06-24 17:53:00,75.5,68.1,29.70,SSW,209,7.0,9.0,78,0.00,,,0.05,WeatherCatV1.15B25,2013-06-24 22:53:00,
2013-06-24 17:58:00,75.4,68.0,29.70,SSW,202,5.0,8.0,78,0.00,,,0.05,WeatherCatV1.15B25,2013-06-24 22:58:00,
2013-06-24 18:03:00,75.2,67.9,29.70,SSW,194,6.0,7.0,78,0.00,,,0.05,WeatherCatV1.15B25,2013-06-24 23:03:00,
2013-06-24 18:08:00,75.1,67.8,29.70,SW,229,6.0,7.0,78,0.00,,,0.05,WeatherCatV1.15B25,2013-06-24 23:08:00,
2013-06-24 18:13:00,75.3,68.3,29.70,SSW,205,3.0,7.0,79,0.00,,,0.05,WeatherCatV1.15B25,2013-06-24 23:13:00,
2013-06-24 18:18:00,75.5,68.1,29.69,SSW,210,4.0,11.0,78,0.00,,,0.05,WeatherCatV1.15B25,2013-06-24 23:18:00,
2013-06-24 18:23:00,75.3,67.9,29.69,SSE,166,6.0,10.0,78,0.00,,,0.05,WeatherCatV1.15B25,2013-06-24 23:23:00,
2013-06-24 18:28:00,75.1,67.8,29.70,South,176,9.0,13.0,78,0.00,,,0.05,WeatherCatV1.15B25,2013-06-24 23:28:00,
2013-06-24 18:33:00,75.0,68.0,29.69,SSE,153,9.0,9.0,79,0.00,,,0.05,WeatherCatV1.15B25,2013-06-24 23:33:00,
2013-06-24 18:38:00,74.8,67.8,29.69,SE,139,6.0,8.0,79,0.00,,,0.05,WeatherCatV1.15B25,2013-06-24 23:38:00,
2013-06-24 18:43:00,74.6,68.0,29.69,SE,139,1.0,4.0,80,0.00,,,0.05,WeatherCatV1.15B25,2013-06-24 23:43:00,
2013-06-24 18:48:00,74.5,68.3,29.69,ESE,110,2.0,5.0,81,0.00,,,0.05,WeatherCatV1.15B25,2013-06-24 23:48:00,
2013-06-24 18:53:00,74.5,68.3,29.69,ESE,108,2.0,4.0,81,0.00,,,0.05,WeatherCatV1.15B25,2013-06-24 23:53:00,
2013-06-24 18:58:00,74.3,67.7,29.69,SE,124,3.0,6.0,80,0.00,,,0.05,WeatherCatV1.15B25,2013-06-24 23:58:00,
2013-06-24 19:03:00,74.1,68.2,29.70,SE,129,4.0,4.0,82,0.00,,,0.05,WeatherCatV1.15B25,2013-06-25 00:03:00,
2013-06-24 19:08:00,74.0,68.1,29.69,ESE,105,4.0,5.0,82,0.00,,,0.05,WeatherCatV1.15B25,2013-06-25 00:08:00,
2013-06-24 19:13:00,73.9,68.4,29.69,SE,145,2.0,5.0,83,0.00,,,0.05,WeatherCatV1.15B25,2013-06-25 00:13:00,
2013-06-24 19:18:00,73.8,68.3,29.69,SE,133,3.0,5.0,83,0.00,,,0.05,WeatherCatV1.15B25,2013-06-25 00:18:00,
2013-06-24 19:23:00,73.8,67.9,29.69,ESE,112,3.0,4.0,82,0.00,,,0.05,WeatherCatV1.15B25,2013-06-25 00:23:00,
2013-06-24 19:28:00,73.8,67.6,29.68,ESE,117,2.0,4.0,81,0.00,,,0.05,WeatherCatV1.15B25,2013-06-25 00:28:00,
2013-06-24 19:33:00,73.8,67.9,29.68,SE,125,0.0,3.0,82,0.00,,,0.05,WeatherCatV1.15B25,2013-06-25 00:33:00,
2013-06-24 19:38:00,73.6,67.8,29.68,SE,139,2.0,3.0,82,0.00,,,0.05,WeatherCatV1.15B25,2013-06-25 00:38:00,
2013-06-24 19:43:00,73.5,68.0,29.67,ESE,120,0.0,0.0,83,0.00,,,0.05,WeatherCatV1.15B25,2013-06-25 00:43:00,
2013-06-24 19:48:00,73.5,68.0,29.68,SE,141,0.0,0.0,83,0.00,,,0.05,WeatherCatV1.15B25,2013-06-25 00:48:00,
2013-06-24 19:53:00,73.4,68.3,29.67,SE,134,0.0,0.0,84,0.00,,,0.05,WeatherCatV1.15B25,2013-06-25 00:53:00,
2013-06-24 19:58:00,73.4,68.3,29.67,SE,138,0.0,0.0,84,0.00,,,0.05,WeatherCatV1.15B25,2013-06-25 00:58:00,
2013-06-24 20:03:00,73.3,68.5,29.68,SE,130,0.0,1.0,85,0.00,,,0.05,WeatherCatV1.15B25,2013-06-25 01:03:00,
2013-06-24 20:08:00,73.3,68.5,29.68,ESE,110,0.0,0.0,85,0.00,,,0.05,WeatherCatV1.15B25,2013-06-25 01:08:00,
2013-06-24 20:13:00,73.3,68.2,29.68,SSE,160,0.0,0.0,84,0.00,,,0.05,WeatherCatV1.15B25,2013-06-25 01:13:00,
2013-06-24 20:18:00,73.2,68.4,29.68,ESE,110,0.0,0.0,85,0.00,,,0.06,WeatherCatV1.15B25,2013-06-25 01:18:00,
2013-06-24 20:23:00,72.9,68.5,29.68,SE,124,0.0,0.0,86,0.00,,,0.06,WeatherCatV1.15B25,2013-06-25 01:23:00,
2013-06-24 20:28:00,72.7,68.3,29.67,ESE,119,0.0,0.0,86,0.00,,,0.06,WeatherCatV1.15B25,2013-06-25 01:28:00,
2013-06-24 20:33:00,72.7,68.6,29.68,ESE,106,0.0,0.0,87,0.00,,,0.06,WeatherCatV1.15B25,2013-06-25 01:33:00,
2013-06-24 20:38:00,72.7,68.9,29.67,ESE,107,0.0,0.0,88,0.00,,,0.06,WeatherCatV1.15B25,2013-06-25 01:38:00,
2013-06-24 20:43:00,72.5,68.7,29.68,North,2,0.0,0.0,88,0.00,,,0.06,WeatherCatV1.15B25,2013-06-25 01:43:00,
2013-06-24 20:48:00,72.4,69.0,29.68,NE,49,0.0,0.0,89,0.00,,,0.06,WeatherCatV1.15B25,2013-06-25 01:48:00,
2013-06-24 20:53:00,72.2,69.1,29.68,NE,56,0.0,0.0,90,0.00,,,0.06,WeatherCatV1.15B25,2013-06-25 01:53:00,
2013-06-24 20:58:00,71.9,69.1,29.68,NE,56,0.0,0.0,91,0.00,,,0.06,WeatherCatV1.15B25,2013-06-25 01:58:00,
2013-06-24 21:03:00,71.8,69.0,29.68,NE,56,0.0,0.0,91,0.00,,,0.06,WeatherCatV1.15B25,2013-06-25 02:03:00,
2013-06-24 21:08:00,71.8,69.0,29.68,NE,48,0.0,0.0,91,0.00,,,0.06,WeatherCatV1.15B25,2013-06-25 02:08:00,
2013-06-24 21:13:00,71.6,68.8,29.68,East,82,0.0,0.0,91,0.00,,,0.06,WeatherCatV1.15B25,2013-06-25 02:13:00,
2013-06-24 21:18:00,71.5,68.7,29.67,ESE,105,0.0,0.0,91,0.00,,,0.06,WeatherCatV1.15B25,2013-06-25 02:18:00,
2013-06-24 21:23:00,71.5,68.7,29.67,ESE,110,0.0,0.0,91,0.00,,,0.06,WeatherCatV1.15B25,2013-06-25 02:23:00,
2013-06-24 21:28:00,71.4,68.6,29.67,ESE,105,0.0,0.0,91,0.00,,,0.06,WeatherCatV1.15B25,2013-06-25 02:28:00,
2013-06-24 21:33:00,71.3,68.5,29.67,East,99,0.0,0.0,91,0.00,,,0.06,WeatherCatV1.15B25,2013-06-25 02:33:00,
2013-06-24 21:38:00,71.2,68.8,29.67,ESE,109,0.0,0.0,92,0.00,,,0.06,WeatherCatV1.15B25,2013-06-25 02:38:00,
2013-06-24 21:43:00,71.1,68.7,29.67,East,92,0.0,0.0,92,0.00,,,0.06,WeatherCatV1.15B25,2013-06-25 02:43:00,
2013-06-24 21:48:00,71.2,68.8,29.68,ESE,107,0.0,0.0,92,0.00,,,0.06,WeatherCatV1.15B25,2013-06-25 02:48:00,
2013-06-24 21:53:00,71.2,68.4,29.68,ESE,104,0.0,0.0,91,0.00,,,0.06,WeatherCatV1.15B25,2013-06-25 02:53:00,
2013-06-24 21:58:00,71.3,68.5,29.68,ESE,120,0.0,0.0,91,0.00,,,0.06,WeatherCatV1.15B25,2013-06-25 02:58:00,
2013-06-24 22:03:00,71.3,68.5,29.68,ESE,106,0.0,0.0,91,0.00,,,0.06,WeatherCatV1.15B25,2013-06-25 03:03:00,
2013-06-24 22:08:00,71.2,68.4,29.68,ESE,112,0.0,0.0,91,0.00,,,0.06,WeatherCatV1.15B25,2013-06-25 03:08:00,
2013-06-24 22:13:00,71.2,68.4,29.68,ESE,116,0.0,0.0,91,0.00,,,0.06,WeatherCatV1.15B25,2013-06-25 03:13:00,
2013-06-24 22:18:00,71.1,68.3,29.68,ESE,111,0.0,0.0,91,0.00,,,0.06,WeatherCatV1.15B25,2013-06-25 03:18:00,
2013-06-24 22:23:00,71.1,68.7,29.68,ESE,105,0.0,0.0,92,0.00,,,0.06,WeatherCatV1.15B25,2013-06-25 03:23:00,
2013-06-24 22:28:00,71.0,68.6,29.69,ESE,102,0.0,0.0,92,0.00,,,0.06,WeatherCatV1.15B25,2013-06-25 03:28:00,
2013-06-24 22:33:00,71.0,68.6,29.69,East,101,0.0,0.0,92,0.00,,,0.06,WeatherCatV1.15B25,2013-06-25 03:33:00,
2013-06-24 22:38:00,70.9,68.5,29.69,ESE,103,0.0,0.0,92,0.00,,,0.06,WeatherCatV1.15B25,2013-06-25 03:38:00,
2013-06-24 22:43:00,70.9,68.5,29.70,ESE,103,0.0,0.0,92,0.00,,,0.06,WeatherCatV1.15B25,2013-06-25 03:43:00,
2013-06-24 22:48:00,70.8,68.4,29.70,ESE,109,0.0,0.0,92,0.00,,,0.06,WeatherCatV1.15B25,2013-06-25 03:48:00,
2013-06-24 22:53:00,70.7,68.3,29.70,East,84,0.0,0.0,92,0.00,,,0.06,WeatherCatV1.15B25,2013-06-25 03:53:00,
2013-06-24 22:58:00,70.7,68.3,29.70,ESE,105,0.0,0.0,92,0.00,,,0.06,WeatherCatV1.15B25,2013-06-25 03:58:00,
2013-06-24 23:01:00,70.6,68.2,29.70,East,95,0.0,0.0,92,0.00,,,0.06,WeatherCatV1.15B25,2013-06-25 04:01:00,
2013-06-24 23:06:00,70.5,68.4,29.69,East,92,0.0,0.0,93,0.00,,,0.06,WeatherCatV1.15B25,2013-06-25 04:06:00,
2013-06-24 23:11:00,70.4,68.3,29.69,ESE,113,0.0,0.0,93,0.00,,,0.06,WeatherCatV1.15B25,2013-06-25 04:11:00,
2013-06-24 23:16:00,70.4,68.3,29.69,ESE,116,0.0,0.0,93,0.00,,,0.06,WeatherCatV1.15B25,2013-06-25 04:16:00,
2013-06-24 23:21:00,70.4,68.3,29.70,East,98,0.0,0.0,93,0.00,,,0.06,WeatherCatV1.15B25,2013-06-25 04:21:00,
2013-06-24 23:26:00,70.3,68.2,29.70,ESE,103,0.0,0.0,93,0.00,,,0.06,WeatherCatV1.15B25,2013-06-25 04:26:00,
2013-06-24 23:31:00,70.3,68.2,29.70,East,82,0.0,0.0,93,0.00,,,0.06,WeatherCatV1.15B25,2013-06-25 04:31:00,
2013-06-24 23:36:00,70.1,68.0,29.69,East,82,0.0,0.0,93,0.00,,,0.06,WeatherCatV1.15B25,2013-06-25 04:36:00,
2013-06-24 23:41:00,70.0,68.2,29.69,ESE,110,0.0,0.0,94,0.00,,,0.06,WeatherCatV1.15B25,2013-06-25 04:41:00,
2013-06-24 23:46:00,69.8,68.0,29.69,ESE,106,0.0,3.0,94,0.00,,,0.06,WeatherCatV1.15B25,2013-06-25 04:46:00,
2013-06-24 23:51:00,69.6,67.8,29.69,East,84,1.0,1.0,94,0.00,,,0.06,WeatherCatV1.15B25,2013-06-25 04:51:00,
2013-06-24 23:56:00,69.6,68.1,29.69,ESE,105,0.0,1.0,95,0.00,,,0.06,WeatherCatV1.15B25,2013-06-25 04:56:00,